KC5EZZ-4 Weather Reports


time (UTC)temp
C
wind
direction
speed
KPH
gust
KPH
rain 1hr
cm
rain 24hr
cm
rain mn
cm
humidity
%
barometer
mb
20260506130040 11 77 8.0 16.1 0.00 0.00 0.00 82 1013.1
20260506124537 12 5 16.1 22.5 0.00 0.00 0.00 81 1012.1
20260506123021 12 331 8.0 20.9 0.00 0.00 0.00 82 1012.2
20260506121517 12 15 8.0 20.9 0.00 0.00 0.00 82 1011.2
20260506120030 12 15 8.0 16.1 0.00 0.00 0.00 81 1011.8
20260506114510 12 50 4.8 16.1 0.00 0.00 0.00 81 1011.0
20260506113008 12 28 6.4 16.1 0.00 0.00 0.00 82 1010.9
20260506111506 12 360 6.4 12.9 0.00 0.00 0.00 82 1010.8
20260506110006 12 19 6.4 16.1 0.00 0.00 0.00 81 1010.2
20260506104615 12 31 3.2 16.1 0.00 0.00 0.00 81 1010.0
20260506103059 12 20 6.4 14.5 0.00 0.00 0.00 81 1009.8
20260506101544 12 22 11.3 22.5 0.00 0.00 0.00 80 1010.0
20260506100052 13 26 11.3 24.1 0.00 0.00 0.00 80 1009.4
20260506094540 13 355 8.0 17.7 0.00 0.00 0.00 80 1009.5
20260506093035 13 5 9.7 19.3 0.00 0.00 0.00 80 1009.1
20260506091532 13 13 11.3 22.5 0.00 0.00 0.00 79 1008.7
20260506090029 14 16 11.3 20.9 0.00 0.00 0.00 78 1008.5
20260506084556 14 28 9.7 19.3 0.00 0.00 0.00 78 1008.6
20260506083022 15 23 8.0 19.3 0.00 0.00 0.00 77 1008.6
20260506081507 15 13 8.0 16.1 0.00 0.00 0.00 78 1008.5
20260506073059 16 51 3.2 8.0 0.00 0.00 0.00 77 1008.4
20260506071656 16 32 3.2 6.4 0.00 0.00 0.00 78 1008.7
20260506061534 17 101 0.0 4.8 0.00 0.00 0.00 75 1007.9
20260506044515 20 78 1.6 6.4 0.00 0.00 0.00 64 1007.2
20260506043009 21 52 3.2 6.4 0.00 0.00 0.00 60 1007.0
20260506041601 22 5 6.4 12.9 0.00 0.00 0.00 54 1006.9
20260506040043 23 5 4.8 8.0 0.00 0.00 0.00 49 1006.8
20260506034526 23 355 0.0 1.6 0.00 0.00 0.00 46 1006.7
20260506033025 23 355 1.6 4.8 0.00 0.00 0.00 45 1006.8
20260506031523 23 333 0.0 1.6 0.00 0.00 0.00 46 1006.5
20260506030020 24 333 0.0 0.0 0.00 0.00 0.00 46 1006.4
20260506024517 24 333 0.0 1.6 0.00 0.00 0.00 43 1006.1
20260506023031 23 333 0.0 0.0 0.00 0.00 0.00 44 1006.1
20260506021530 23 333 0.0 1.6 0.00 0.00 0.00 45 1006.1
20260506020016 24 333 0.0 6.4 0.00 0.00 0.00 45 1005.8
20260506014519 25 277 0.0 1.6 0.00 0.00 0.00 43 1005.6
20260506013018 25 269 0.0 4.8 0.00 0.00 0.00 41 1005.1
20260506011516 27 262 0.0 1.6 0.00 0.00 0.00 38 1004.8
20260506010016 28 246 0.0 4.8 0.00 0.00 0.00 35 1004.6
20260506004517 28 237 0.0 3.2 0.00 0.00 0.00 33 1004.3
20260506003016 30 258 0.0 4.8 0.00 0.00 0.00 32 1004.2
20260506001555 30 252 1.6 6.4 0.00 0.00 0.00 27 1004.1
20260506000053 31 219 3.2 8.0 0.00 0.00 0.00 25 1003.9
20260505234531 31 231 3.2 8.0 0.00 0.00 0.00 25 1004.0
20260505233030 31 259 4.8 11.3 0.00 0.00 0.00 23 1004.0
20260505231532 32 202 3.2 11.3 0.00 0.00 0.00 22 1003.9
20260505230023 33 282 4.8 20.9 0.00 0.00 0.00 21 1004.1
20260505224515 33 234 9.7 16.1 0.00 0.00 0.00 22 1004.1
20260505223012 32 217 1.6 17.7 0.00 0.00 0.00 23 1004.1
20260505221511 33 303 6.4 22.5 0.00 0.00 0.00 21 1004.1
20260505220008 33 225 3.2 11.3 0.00 0.00 0.00 22 1004.0
20260505214506 34 247 3.2 11.3 0.00 0.00 0.00 24 1004.0
20260505213014 34 241 3.2 14.5 0.00 0.00 0.00 25 1004.3
20260505211552 35 344 1.6 12.9 0.00 0.00 0.00 24 1004.4
20260505210048 34 240 4.8 22.5 0.00 0.00 0.00 25 1004.5
20260505204546 33 31 3.2 12.9 0.00 0.00 0.00 28 1004.5
20260505203105 33 238 8.0 16.1 0.00 0.00 0.00 25 1004.6
20260505201545 33 252 8.0 17.7 0.00 0.00 0.00 25 1004.8
20260505200047 33 250 3.2 14.5 0.00 0.00 0.00 30 1004.9
20260505194539 33 300 3.2 16.1 0.00 0.00 0.00 29 1005.1
20260505193036 33 248 9.7 20.9 0.00 0.00 0.00 29 1005.1
20260505191521 33 294 1.6 16.1 0.00 0.00 0.00 34 1005.3
20260505190018 32 286 3.2 14.5 0.00 0.00 0.00 39 1005.4
20260505184518 32 249 3.2 14.5 0.00 0.00 0.00 39 1005.6
20260505183020 32 267 4.8 17.7 0.00 0.00 0.00 38 1006.0
20260505181514 32 360 1.6 12.9 0.00 0.00 0.00 42 1006.1
20260505180017 31 242 4.8 16.1 0.00 0.00 0.00 43 1006.3
20260505174508 31 285 4.8 19.3 0.00 0.00 0.00 44 1006.5
20260505173003 30 217 6.4 17.7 0.00 0.00 0.00 47 1006.5
20260505171550 29 225 4.8 22.5 0.00 0.00 0.00 52 1006.5
20260505170103 28 242 8.0 20.9 0.00 0.00 0.00 55 1006.6
20260505164544 28 174 11.3 24.1 0.00 0.00 0.00 57 1006.6
20260505163041 27 219 11.3 20.9 0.00 0.00 0.00 60 1006.6
20260505161536 26 250 9.7 22.5 0.00 0.00 0.00 63 1006.5
20260505153028 25 182 9.7 20.9 0.00 0.00 0.00 69 1006.2
20260505152442 27 232 16.1 11.3 0.00 1.14 0.00
20260505151943 27 248 14.5 19.3 0.00 1.14 0.00
20260505151519 25 226 12.9 22.5 0.00 0.00 0.00 69 1006.2
20260505150941 27 243 12.9 11.3 0.00 1.14 0.00
20260505150441 27 205 11.3 14.5 0.00 1.14 0.00
20260505140427 26 200 8.0 12.9 0.00 1.14 0.00